Regional Weather Roundup
Issued by NWS Boston, MA

Current Version | Previous Version | Graphics & Text | Print | Product List | Glossary On
Versions: 1 2 3 4 5 6 7 8 9 10 11 12 13 14 15 16 17 18 19 20 21 22 23 24 25 26 27
000 ASUS41 KBOX 192110 RWRBOX REGIONAL WEATHER ROUNDUP NATIONAL WEATHER SERVICE TAUNTON MA 400 PM EST MON FEB 19 2018 NOTE: "FAIR" INDICATES FEW OR NO CLOUDS BELOW 12,000 FEET WITH NO SIGNIFICANT WEATHER AND/OR OBSTRUCTIONS TO VISIBILITY. MAZALL-192200- EASTERN MASSACHUSETTS CITY SKY/WX TMP DP RH WIND PRES REMARKS BOSTON CLOUDY 48 38 68 SW17G26 30.37F BEVERLY CLOUDY 48 35 60 S12 30.36F LAWRENCE CLOUDY 48 32 53 SW9 30.37S BEDFORD CLOUDY 47 34 60 SW9 30.35F BLUE HILL N/A 46 38 73 S17G29 30.34F NORWOOD CLOUDY 51 39 63 S12 30.37F MARSHFIELD PTSUNNY 50 41 71 S17G24 30.38F PLYMOUTH CLOUDY 49 40 71 S14 30.40F TAUNTON CLOUDY 50 41 71 S9G20 30.39F NEW BEDFORD CLOUDY 48 42 80 S10 30.41F $$ MAZALL-192200- CAPE COD AND THE ISLANDS CITY SKY/WX TMP DP RH WIND PRES REMARKS FALMOUTH CLOUDY 48 41 76 S16G23 30.42 HYANNIS FAIR 45 39 79 S9 30.41F CHATHAM PTSUNNY 46 40 79 S12G23 30.43F PROVINCETOWN PTSUNNY 45 39 79 S16G22 30.42F NANTUCKET FAIR 45 41 86 S14 30.44S MARTHAS VNYRD PTSUNNY 46 39 76 S16 30.41F $$ MAZALL-192200- CENTRAL AND WESTERN MASSACHUSETTS CITY SKY/WX TMP DP RH WIND PRES REMARKS WORCESTER CLOUDY 42 32 67 SW10G21 30.35R FITCHBURG CLOUDY 48 33 56 VRB3 30.36R ORANGE CLOUDY 43 33 68 S8 30.35S SPRINGFIELD CLOUDY 43 37 81 S10 30.34 WESTFIELD CLOUDY 43 36 76 S9 30.34F NORTH ADAMS LGT RAIN 40 32 73 VRB3 30.30F PITTSFIELD LGT RAIN 39 31 72 S8 30.28F $$ RIZALL-192200- RHODE ISLAND CITY SKY/WX TMP DP RH WIND PRES REMARKS PROVIDENCE PTSUNNY 50 42 74 S9 30.40F NEWPORT CLOUDY 45 41 86 S10 30.41S BLOCK ISLAND CLOUDY 46 42 86 S9 30.42S SMITHFIELD CLOUDY 47 38 71 SW8G17 30.38S WESTERLY CLOUDY 47 42 83 S8 30.42S $$ CTZALL-192200- CONNECTICUT CITY SKY/WX TMP DP RH WIND PRES REMARKS BRADLEY INTL LGT RAIN 45 37 73 S9 30.36F HARTFORD CLOUDY 47 38 71 S8 30.37F BRIDGEPORT CLOUDY 45 38 76 CALM 30.39F DANBURY CLOUDY N/A N/A N/A S7 30.37F GROTON CLOUDY 48 41 76 SW9 30.41S NEW HAVEN CLOUDY 44 37 76 S3 30.39F CHESTER CLOUDY 48 39 71 S7 30.38F MERIDEN LGT RAIN 46 38 73 S7 30.38F WILLIMANTIC CLOUDY 48 38 68 S8 30.39F OXFORD CLOUDY 44 38 79 SW8 30.37F $$ MEZ002-015-021-024-NHZ003-005-008-011-012-014-VTZ005-008-192200- NORTHERN NEW ENGLAND CITY SKY/WX TMP DP RH WIND PRES REMARKS PORTLAND ME PTSUNNY 41 35 79 S10G23 30.35F BANGOR ME PTSUNNY 40 32 73 S16 30.33F WCI 31 CONCORD NH CLOUDY 44 30 57 SE8 30.32S MANCHESTER NH CLOUDY 47 31 53 S10 30.32F NASHUA NH CLOUDY 46 33 60 S6G14 30.35S PORTSMOUTH NH PTSUNNY 45 31 58 S7 30.33F JAFFREY NH CLOUDY 42 30 62 S13 30.31F KEENE NH CLOUDY 43 31 62 S9 30.32F BURLINGTON VT CLOUDY 43 29 57 S13 30.20S MT. WASHINGTON FOG 25 25 100 W54 N/A VSB 0 WCI 3 $$ NYZ052-076-192200- EASTERN NEW YORK CITY SKY/WX TMP DP RH WIND PRES REMARKS ALBANY LGT RAIN 41 33 73 S16G26 30.28F NEW YORK CITY CLOUDY 49 41 74 S7 30.39S $$ ANZALL-192200- MARINE OBSERVATIONS STATION/POSITION TIME TEMP WIND PRES VSBY WAVE AIR SEA DIR/SP/G HT/PER (UTC) (F) (DEG/KT/KT) (MB) (MI) (FT/S) BOSTON BUOY 2050 44 39 170/ 14/ 16 1028.0F 4/11 BUZZARDS BAY 2000 43 210/ 9/ 10 1030.7S NANTUCKET SOUND 2050 43 38 180/ 14/ 16 1030.1F 2/ 3 MASS BAY-STELLWA 2004 41 39 1027.9F 6/11 ISLE OF SHOALS 2100 45 190/ 22/ 23 1027.5F S OF BLOCK IS NOT AVBL $$ ......................KEY......................... SKY/WX - SKY CONDITION/PRESENT WEATHER TMP - TEMPERATURE IN FAHRENHEIT DWPT - DEWPOINT IN FAHRENHEIT RH - RELATIVE HUMIDITY IN PERCENT WIND - DIRECTION AND SPEED IN MPH PRES - MEAN SEA LEVEL PRESSURE IN INCHES OF HG WCI - WIND CHILL INDEX VSB - VISIBILITY IN MILES HX - HEAT INDEX TC - TEMPERATURE IN CELSIUS VRB - VARIABLE WIND DIRECTION N/A - NOT AVAILABLE

USA.gov is the U.S. government's official web portal to all federal, state and local government web resources and services.